Regional Weather Roundup
Issued by NWS Little Rock, AR

Home | Current Version | Previous Version | Graphics & Text | Print | Product List | Glossary On
Versions: 1 2 3 4 5 6 7 8 9 10 11 12 13 14 15 16 17 18 19 20 21 22 23 24 25 26 27 28 29 30 31 32 33 34 35 36 37 38 39 40 41 42 43 44 45 46 47 48 49 50
000
ASUS44 KLZK 071905
RWRLZK

WEATHER ROUNDUP FOR ARKANSAS
NATIONAL WEATHER SERVICE LITTLE ROCK AR
100 PM CST WED DEC 07 2016

NOTE: "FAIR" INDICATES FEW OR NO CLOUDS BELOW 12,000 FEET WITH NO
SIGNIFICANT WEATHER AND/OR OBSTRUCTIONS TO VISIBILITY.

ARZ001-003-010-029-072000-
NORTHWEST ARKANSAS

CITY           SKY/WX    TMP DP  RH WIND       PRES   REMARKS
FAYETTEVILLE   CLOUDY    34  23  64 E9        30.16F WCI  27
FORT SMITH     CLOUDY    41  25  53 E10       30.17F
HARRISON       CLOUDY    35  17  47 CALM      30.17F
BENTONVILLE    CLOUDY    34  18  51 E9        30.17F WCI  26
ROGERS         CLOUDY    34  17  50 E12       30.17F WCI  25
SILOAM SPGS    CLOUDY    36  19  51 E7        30.17F
HIGHFILL       CLOUDY    35  21  56 E9        30.16F WCI  28
SPRINGDALE     CLOUDY    34  19  55 E7        30.18F WCI  28
$$

ARZ004-005-016-072000-
NORTH CENTRAL ARKANSAS

CITY           SKY/WX    TMP DP  RH WIND       PRES   REMARKS
BATESVILLE     CLOUDY    39  21  48 N6        30.20F
FLIPPIN        CLOUDY    37  16  41 NE5       30.18F
MTN HOME       CLOUDY    36  19  50 NE3       30.19F
$$

ARZ040-041-072000-
WEST CENTRAL ARKANSAS

CITY           SKY/WX    TMP DP  RH WIND       PRES   REMARKS
MENA           CLOUDY    43  39  87 E6        30.11F
$$

ARZ009-017-025-026-028-072000-
NORTHEAST ARKANSAS

CITY           SKY/WX    TMP DP  RH WIND       PRES   REMARKS
CORNING        CLOUDY    39  23  52 NE8       30.21F
JONESBORO      CLOUDY    43  30  60 E13       30.19F
NEWPORT        CLOUDY    41  30  65 N9        30.19F
WALNUT RIDGE   CLOUDY    41  23  48 N10       30.20F
BLYTHEVILLE    CLOUDY    47  32  56 NE9       30.19F
NW BLYTHEVILLE PTSUNNY   45  30  57 NE7       30.18
$$

ARZ022-023-033-042-044-072000-
CENTRAL ARKANSAS

CITY           SKY/WX    TMP DP  RH WIND       PRES   REMARKS
LITTLE ROCK    CLOUDY    41  33  73 NE8       30.18F
N LITTLE ROCK    N/A     40  32  72 E6        30.19F
JACKSONVILLE   CLOUDY    41  30  65 NE7       30.17F
SEARCY         CLOUDY    42  30  62 NE8       30.20F
HOT SPRINGS    CLOUDY    42  34  73 E8        30.16F
RUSSELLVILLE   CLOUDY    39  24  55 NE9       30.18F
CLINTON        CLOUDY    41  23  48 CALM      30.19F
$$

ARZ036-072000-
EAST ARKANSAS

CITY           SKY/WX    TMP DP  RH WIND       PRES   REMARKS
WEST MEMPHIS   PTSUNNY   46  35  65 N9        30.15F
$$

ARZ050-053-066-070-073-072000-
SOUTHWEST ARKANSAS

CITY           SKY/WX    TMP DP  RH WIND       PRES   REMARKS
ARKADELPHIA    CLOUDY    42  39  89 NE6       30.17F
CAMDEN         CLOUDY    46  39  76 NE3       30.16R
TEXARKANA      CLOUDY    47  41  80 NE6       30.12F
EL DORADO      CLOUDY    48  43  82 E7        30.13F
DE QUEEN       CLOUDY    46  40  79 E8        30.11F
$$

ARZ056-057-069-072000-
SOUTHEAST ARKANSAS

CITY           SKY/WX    TMP DP  RH WIND       PRES   REMARKS
PINE BLUFF     CLOUDY    43  38  82 N5        30.16F
STUTTGART      CLOUDY    45  32  61 NE7       30.17S
MONTICELLO     CLOUDY    48  40  73 E8        30.13F

$$





USA.gov is the U.S. government's official web portal to all federal, state and local government web resources and services.